Location: Dunhill
(52.1697°N, 7.2569°W)
Time: 08:56:02
(UTC+00:00)

Daily predictions for brighter satellites

Satellite Brightness Start Highest point End
(mag) Time Altitude Azimuth Time Altitude Azimuth Time Altitude Azimuth
CENTAUR R/B 3.7 21:12:59 10° NW 21:20:29 57° NNE 21:28:55 10° ESE
CZ-2C R/B 3.4 21:17:17 10° N 21:22:50 64° WNW 21:28:23 10° SSW
ATLAS 3B R/B 3.9 21:17:24 10° NW 21:23:38 38° NNE 21:30:00 10° E
STARLINK-1084 3.9 21:19:37 10° WNW 21:23:42 58° SSW 21:27:47 10° SE
STARLINK-1202 3.7 21:21:27 10° SW 21:25:32 60° SSE 21:29:37 10° ENE
SL-27 R/B 4.1 21:22:41 10° N 21:25:42 24° NE 21:28:39 10° ESE
NOSS 3-2 (C) 4.4 21:18:49 10° NW 21:25:54 61° NE 21:34:01 10° ESE
Cosmos 1674 Rocket 3.7 21:21:43 10° S 21:25:59 57° E 21:30:21 10° NNE
STARLINK-1254 3.8 21:24:03 10° W 21:28:12 82° N 21:32:23 10° E
STARLINK-1098 3.9 21:24:36 10° WNW 21:28:40 55° SSW 21:32:43 10° SE
Cosmos 1766 4.2 21:25:02 10° N 21:28:44 35° ENE 21:32:25 10° SE
Cosmos 1378 Rocket 3.9 21:24:41 10° SSE 21:28:54 47° E 21:33:07 10° NNE
Meteor 2-4 Rocket 4.1 21:25:59 10° SSW 21:31:17 64° WNW 21:36:40 10° N
STARLINK-1231 3.8 21:29:01 10° W 21:33:11 81° N 21:37:21 10° E
STARLINK-1123 4.0 21:29:34 10° WNW 21:33:36 52° SSW 21:37:38 10° SE
Cosmos 1833 Rocket 4.3 21:29:12 10° NW 21:33:55 28° WSW 21:38:37 10° SSW
STARLINK-1246 3.6 21:31:22 10° WSW 21:35:29 66° SSE 21:39:36 10° ENE
Cosmos 1900 4.5 21:30:39 10° NW 21:35:42 81° NE 21:40:49 10° SE
IGS 5A 3.6 21:32:57 10° SSE 21:37:07 81° WSW 21:41:19 10° NNW
Cosmos 2297 3.9 21:32:22 10° S 21:37:54 54° ESE 21:43:28 10° NE
Cosmos 1943 Rocket 3.1 21:33:26 10° SSE 21:38:01 27° ESE 21:42:41 10° NE
STARLINK-1232 3.8 21:34:01 10° W 21:38:11 80° N 21:42:21 10° E
NOSS 2-2 (E) 3.8 21:35:12 10° S 21:38:30 34° ESE 21:42:14 10° ENE
STARLINK-1097 4.0 21:34:35 10° WNW 21:38:36 50° SSW 21:42:36 10° SE
STARLINK-1224 3.6 21:36:19 10° WSW 21:40:26 69° SSE 21:44:34 10° ENE
Cosmos 2082 Rocket 3.3 21:35:39 10° NW 21:40:55 39° WSW 21:46:09 10° S
Cosmos 332 Rocket 3.9 21:36:34 10° SSW 21:41:29 89° ESE 21:46:25 10° NNE
Landsat 7 4.0 21:37:46 10° S 21:42:32 74° WSW 21:47:19 10° NNW
Cosmos 1452 Rocket 3.8 21:37:38 10° SSW 21:42:55 75° WNW 21:48:15 10° NNE
STARLINK-1208 3.8 21:38:59 10° W 21:43:09 79° N 21:47:19 10° E
STARLINK-1099 4.1 21:39:33 10° WNW 21:43:33 47° SSW 21:47:31 10° SE
SAR-Lupe-2 3.5 21:40:31 10° NNE 21:44:07 73° ESE 21:47:42 10° S
STARLINK-1225 3.6 21:41:18 10° WSW 21:45:26 71° SSE 21:49:34 10° ENE
Cosmos 1461 2.9 21:41:24 10° SSW 21:45:33 66° SE 21:49:56 10° NE
STARLINK-1212 2.9 21:43:21 10° W 21:46:28 80° N 21:49:35 10° E
STARLINK-1105 2.9 21:43:49 10° W 21:46:56 80° N 21:50:03 10° E
STARLINK-1247 3.0 21:44:41 10° W 21:47:49 80° N 21:50:57 10° E
STARLINK-1271 3.8 21:44:00 10° W 21:48:10 79° N 21:52:20 10° E
STARLINK-1227 2.9 21:45:12 10° W 21:48:18 80° N 21:51:25 10° E
STARLINK-1104 4.2 21:44:32 10° WNW 21:48:30 44° SSW 21:52:18 11° SE
Cosmos 1975 Rocket 4.1 21:44:43 10° SSE 21:48:32 29° E 21:52:21 10° NNE
BREEZE-M DEB (TANK) 4.5 21:30:40 10° SW 21:48:57 49° SSE 21:53:41 10° E
CZ-4B DEB 4.4 21:45:43 10° SSE 21:49:03 82° WSW 21:52:25 10° NNW
STARLINK-1226 2.9 21:46:03 10° W 21:49:11 81° N 21:52:18 10° E
Meteor 1-23 Rocket 4.2 21:43:50 10° S 21:49:29 73° E 21:55:07 10° NNE
STARLINK-1215 2.9 21:46:57 10° W 21:50:04 81° N 21:53:13 10° E
BREEZE-M DEB (TANK) 3.1 21:45:09 10° WSW 21:50:09 61° S 21:53:34 10° E
STARLINK-1230 3.5 21:46:15 10° WSW 21:50:23 74° SSE 21:54:33 10° ENE
STARLINK-1217 2.9 21:48:46 10° W 21:51:54 82° N 21:55:01 10° E
STARLINK-1229 2.9 21:49:40 10° W 21:52:48 82° N 21:55:56 10° E
STARLINK-1154 3.8 21:48:59 10° W 21:53:09 78° N 21:57:19 10° E
STARLINK-1144 4.2 21:49:32 10° WNW 21:53:28 42° SSW 21:57:05 12° SE
STARLINK-1270 2.9 21:50:34 10° W 21:53:42 82° N 21:56:50 10° E
Cosmos 2369 Rocket 3.2 21:49:33 10° SSE 21:54:13 27° ESE 21:58:53 10° NE
STARLINK-1243 3.5 21:51:14 10° WSW 21:55:23 77° SSE 21:59:32 10° ENE
STARLINK-1189 2.9 21:52:22 10° W 21:55:30 83° N 21:58:38 10° E
STARLINK-1188 2.9 21:53:16 10° W 21:56:25 84° N 21:59:32 10° E
STARLINK-1187 2.8 21:54:23 10° WNW 21:57:30 87° NNE 22:00:36 10° E
STARLINK-1197 3.8 21:53:57 10° W 21:58:07 78° N 22:02:16 10° E
STARLINK-1103 4.3 21:54:31 10° W 21:58:25 40° SSW 22:01:51 12° SE
STARLINK-1191 2.9 21:55:43 10° WNW 21:58:50 85° NNE 22:01:57 10° E
SPOT 5 3.1 21:53:40 10° SSE 21:58:56 85° ENE 22:04:21 10° NNW
STARLINK-1221 2.9 21:56:41 10° WNW 21:59:47 85° N 22:02:54 10° E
STARLINK-1236 3.5 21:56:11 10° WSW 22:00:20 80° SSE 22:04:30 10° ENE
STARLINK-1222 2.9 21:57:31 10° WNW 22:00:38 85° N 22:03:45 10° E
STARLINK-1214 2.8 21:58:24 10° WNW 22:01:33 86° NNE 22:04:39 10° E
NOSS 2-2 (C) 3.5 21:59:35 10° SSW 22:03:01 45° SE 22:06:56 10° NE
STARLINK-1198 3.8 21:58:56 10° W 22:03:06 78° N 22:07:15 10° E
STARLINK-1101 4.4 21:59:31 10° W 22:03:22 37° SSW 22:06:38 13° SSE
EXPRESS MD2 4.0 22:00:09 10° SW 22:03:28 44° SSE 22:09:48 10° E
Meteor 1-22 Rocket 4.4 21:57:43 10° N 22:03:41 75° ENE 22:09:05 12° SSE
ERS-1 Rocket 3.1 21:59:53 10° S 22:04:55 76° WSW 22:10:00 10° NNW
Okean 2 3.9 22:02:00 11° SSE 22:05:46 44° E 22:09:45 10° NNE
BREEZE M DEB (TANK) 3.1 22:01:37 10° SW 22:05:51 33° SSE 22:08:01 10° E
Cosmos 2026 Rocket 4.5 22:00:23 10° SSE 22:06:19 46° E 22:12:20 10° NNE
ATLAS 2AS CENTAUR R/B 4.0 22:00:58 10° SSE 22:07:16 27° ESE 22:13:34 10° ENE
STARLINK-1228 3.1 22:03:50 10° WNW 22:07:21 83° SSW 22:10:51 10° ESE
NOSS 3-2 (A) 4.1 22:00:04 10° NW 22:07:24 78° SW 22:15:11 12° SE
Cosmos 1953 4.4 22:04:51 10° NNE 22:07:31 17° ENE 22:10:10 10° ESE
STARLINK-1199 3.8 22:03:56 10° W 22:08:06 78° N 22:12:16 10° E
STARLINK-1102 4.5 22:04:31 10° W 22:08:20 35° SSW 22:11:26 14° SSE
Cosmos 1805 3.3 22:04:45 10° NNW 22:08:42 81° W 22:12:24 11° S
Cosmos 1470 3.9 22:05:25 10° N 22:08:55 31° ENE 22:11:51 13° SE
USA 245 4.5 22:06:44 10° SSW 22:09:02 21° W 22:11:05 10° NW
STARLINK-1235 2.9 22:06:35 10° WNW 22:09:50 83° S 22:13:05 10° ESE
Okean 1 Rocket 3.7 22:05:54 10° NNW 22:10:16 53° W 22:14:34 10° S
STARLINK-1269 3.6 22:06:09 10° WSW 22:10:18 85° SSE 22:14:29 10° ENE
Cosmos 1066 Rocket 4.2 22:06:53 10° SSW 22:12:16 80° WNW 22:17:39 10° NNE
Resurs 01 Rocket 4.1 22:09:52 10° SW 22:12:57 18° W 22:16:02 10° NW
Cosmos 968 Rocket 3.9 22:07:57 10° NNW 22:13:02 53° ENE 22:17:31 13° SE
STARLINK-1210 3.8 22:08:55 10° W 22:13:05 78° N 22:17:14 10° E
STARLINK-1200 3.6 22:11:06 10° WSW 22:15:16 87° S 22:19:26 10° ENE
Cosmos 1455 Rocket 3.3 22:11:36 10° N 22:15:54 58° ENE 22:19:25 15° SSE
Cosmos 2278 Rocket 4.0 22:12:40 10° WSW 22:17:53 36° NW 22:23:07 10° NNE
STARLINK-1219 3.8 22:13:53 10° W 22:18:03 79° N 22:22:13 10° E
USA 238 DEB 4.0 22:12:12 10° NW 22:19:19 69° SW 22:25:51 14° SSE
USA 238 4.0 22:12:18 10° NW 22:19:26 69° SW 22:25:58 14° SSE
STARLINK-1192 3.6 22:16:06 10° WSW 22:20:15 89° S 22:24:26 10° ENE
ATLAS 5 CENTAUR R/B 3.7 22:21:46 12° ESE 22:21:46 12° ESE 22:22:27 10° ESE
Nadezhda 4 Rocket 4.1 22:15:14 10° SSW 22:21:22 76° W 22:27:31 10° N
Cosmos 1758 4.2 22:18:38 10° N 22:22:27 38° ENE 22:25:25 15° SE
Abrixas rocket 4.1 22:21:05 10° WSW 22:22:31 13° SSW 22:23:18 12° SSW
STARLINK-1211 3.7 22:18:53 10° W 22:23:03 79° N 22:27:13 10° E
SL-4 R/B 3.4 22:21:00 10° SSW 22:24:50 24° SE 22:28:42 10° E
STARLINK-1244 3.6 22:21:04 10° WSW 22:25:14 89° N 22:29:24 10° ENE
ERBS 3.8 22:23:34 10° W 22:26:43 39° N 22:29:52 10° ENE
Cosmos 1842 3.4 22:24:07 15° S 22:27:15 55° E 22:31:04 10° NNE
Terra 2.0 22:23:15 13° S 22:27:30 74° WSW 22:32:18 10° NNW
STARLINK-1234 2.9 22:24:21 10° WNW 22:27:36 69° SSW 22:30:17 14° ESE
STARLINK-1245 3.7 22:23:52 10° W 22:28:02 80° N 22:32:11 10° E
CARTOSAT-1 4.4 22:24:57 10° S 22:29:07 46° W 22:33:18 10° NNW
Cosmos 1110 Rocket 4.2 22:24:34 10° SSW 22:29:45 74° WNW 22:34:57 10° NNE
STARLINK-1138 3.6 22:26:03 10° W 22:30:13 87° NNW 22:34:24 10° E
STARLINK-1233 3.7 22:28:50 10° W 22:32:59 81° N 22:37:09 10° E
Cosmos 1503 Rocket 4.4 22:27:57 10° NNW 22:33:12 57° ENE 22:37:35 15° SE
STARLINK-1209 3.0 22:30:31 10° WNW 22:33:47 63° SSW 22:36:13 16° ESE
STARLINK-1143 3.6 22:31:01 10° W 22:35:11 85° N 22:39:21 10° E
STARLINK-1204 3.7 22:33:49 10° W 22:37:59 82° N 22:42:09 10° E
Aureole 2 Rocket 4.2 22:36:21 10° WSW 22:39:02 27° WNW 22:41:36 10° N
STARLINK-1241 3.7 22:36:02 10° W 22:40:12 84° N 22:44:23 10° E
Cosmos 1733 3.8 22:37:44 10° NNW 22:41:28 51° W 22:44:30 14° SSW
STARLINK-1238 3.7 22:38:49 10° W 22:43:00 83° NNE 22:47:09 10° E
STARLINK-1239 3.7 22:41:00 10° W 22:45:10 82° N 22:49:21 10° E
STARLINK-1201 3.6 22:43:48 10° W 22:47:58 85° N 22:52:08 10° E
Cosmos 1536 Rocket 4.4 22:45:44 18° SE 22:48:18 35° E 22:52:17 10° NNE
Cosmos 1378 4.3 22:45:07 10° SW 22:48:39 41° WNW 22:52:12 10° N
MTI 3.7 22:46:04 10° NNE 22:49:14 82° WNW 22:51:36 16° SSW
JB-3 4.5 22:45:22 10° NNE 22:49:32 65° ESE 22:52:30 18° S
STARLINK-1240 3.7 22:45:59 10° W 22:50:08 81° N 22:54:19 10° E
Cosmos 1271 Rocket 3.2 22:49:29 21° SSE 22:51:48 46° E 22:55:36 10° NNE
Cosmos 1242 Rocket 2.6 22:49:25 19° S 22:51:52 64° E 22:55:32 10° NNE
Cosmos 1354 Rocket 4.2 22:47:15 10° NNW 22:52:35 71° ENE 22:56:35 18° SE
Cosmos 1544 Rocket 3.5 22:48:22 10° NNW 22:52:43 85° W 22:55:47 19° S
STARLINK-1206 3.6 22:48:48 10° W 22:52:58 86° N 22:57:08 10° E
STARLINK-60 3.8 22:52:21 23° S 22:53:22 28° SSE 22:56:09 10° E
Cosmos 1486 Rocket 4.2 22:49:24 10° NNW 22:54:41 65° WSW 22:58:32 18° S
Meteor 1-21 4.2 22:50:09 14° S 22:54:57 74° E 23:00:34 10° NNE
STARLINK-1216 3.7 22:50:58 10° W 22:55:07 80° N 22:59:17 10° E
STARLINK-1203 3.7 22:51:01 10° W 22:55:15 80° N 22:59:29 10° E
COSMOS 2455 3.9 22:52:50 18° SSE 22:56:03 28° ESE 23:01:04 10° NE
Cosmos 1302 Rocket 4.1 22:51:18 10° SSW 22:56:36 87° WNW 23:01:57 10° NNE
Cosmos 1833 4.2 22:51:18 10° NNW 22:56:59 88° WSW 23:01:10 19° SSE
Spot 4 4.1 22:53:29 18° SSE 22:56:59 62° ENE 23:01:48 10° N
STARLINK-1205 3.6 22:53:46 10° WNW 22:57:56 88° N 23:02:06 10° ESE
Cosmos 2297 Rocket 4.2 22:54:38 10° NNW 22:59:08 23° NE 23:03:36 10° E
STARLINK-1237 3.7 22:55:57 10° W 23:00:07 79° N 23:04:17 10° E
SL-27 R/B 3.6 22:57:35 10° NW 23:00:54 35° WSW 23:03:01 18° SSW
USA 215 3.4 22:54:58 10° ESE 23:01:33 83° NNE 23:08:07 10° WNW
Cosmos 1707 3.1 22:59:44 22° SSE 23:01:55 48° E 23:05:41 10° NNE
Lacrosse 4 Rocket 4.3 23:00:06 10° NNW 23:02:24 14° NNE 23:04:41 10° NE
STARLINK-1218 3.6 22:58:46 10° WNW 23:02:56 90° SSW 23:07:05 10° ESE
STARLINK-1202 3.7 23:00:56 10° W 23:05:06 79° N 23:09:16 10° E
Cosmos 1726 2.7 23:01:37 10° N 23:05:15 48° ENE 23:07:20 22° SE
STARLINK-1254 3.6 23:03:44 10° WNW 23:07:54 88° SSW 23:12:04 10° ESE
COSMOS 2487 2.8 23:05:11 10° NNW 23:08:37 56° ENE 23:10:32 23° SE
ALOS 2 3.4 23:07:47 18° SE 23:10:45 43° ENE 23:14:56 10° N
NOSS 2-2 (D) 4.0 23:07:54 10° WSW 23:11:30 55° NW 23:15:48 10° NE
CENTAUR R/B 3.3 23:03:47 10° NW 23:11:36 63° SW 23:18:17 18° SSE
STARLINK-1231 3.5 23:08:42 10° WNW 23:12:52 85° SSW 23:17:02 10° ESE
Meteor 1-16 Rocket 4.4 23:08:34 10° N 23:14:06 62° ENE 23:17:49 20° SSE
Cosmos 1867 3.6 23:09:35 10° NW 23:15:02 70° SW 23:18:45 21° SSE
STARLINK-1246 3.7 23:10:56 10° W 23:15:05 78° N 23:19:15 10° E
ATLAS 3B R/B 2.7 23:08:18 10° NW 23:15:06 87° NE 23:21:09 15° SE
NOSS 3-2 (C) 4.4 23:09:48 10° NW 23:17:01 53° SW 23:23:02 19° SSE
EO 1 Del DPAF 3.2 23:13:36 10° NNE 23:17:24 66° ESE 23:19:29 25° S
STARLINK-1232 3.5 23:13:42 10° WNW 23:17:52 83° SSW 23:22:01 10° ESE
Cosmos 1992 Rocket 4.0 23:16:14 18° S 23:20:03 65° ESE 23:25:14 10° NNE
STARLINK-1224 3.7 23:15:54 10° W 23:20:03 78° N 23:24:13 10° E
SeaSat 1 2.7 23:16:27 10° NE 23:21:15 49° ESE 23:24:20 21° S
Cosmos 1943 Rocket 2.6 23:15:53 10° SW 23:21:23 63° NW 23:27:00 10° NNE
STARLINK-1212 3.4 23:19:14 10° W 23:22:11 40° SSW 23:22:54 33° S
STARLINK-1105 3.4 23:19:43 10° W 23:22:39 39° SSW 23:23:20 33° S
STARLINK-1208 3.5 23:18:40 10° WNW 23:22:49 80° SSW 23:26:58 10° ESE
STARLINK-29 4.3 23:24:02 23° ESE 23:24:02 23° ESE 23:26:02 10° E
NOSS 5 (C) 4.3 23:20:19 10° NW 23:23:24 81° NE 23:25:32 22° SE
STARLINK-1247 3.4 23:20:35 10° W 23:23:32 39° SSW 23:24:13 33° S
STARLINK-1227 3.4 23:21:05 10° W 23:24:00 38° SSW 23:24:39 34° S
STARLINK-1226 3.4 23:21:57 10° W 23:24:53 38° SSW 23:25:31 34° S
STARLINK-1225 3.7 23:20:54 10° W 23:25:04 78° N 23:29:14 10° E
ATLAS CENTAUR R/B 2.3 23:23:55 10° NW 23:25:39 30° NNE 23:28:02 10° E
STARLINK-1215 3.5 23:22:50 10° W 23:25:47 38° SSW 23:26:23 33° S
Cosmos 1975 Rocket 4.4 23:22:12 10° SW 23:26:18 36° WNW 23:30:25 10° N
STARLINK-1217 3.5 23:24:39 10° W 23:27:34 37° SSW 23:28:08 34° S
STARLINK-1271 3.5 23:23:40 10° WNW 23:27:50 78° SSW 23:31:49 11° ESE
STARLINK-1229 3.5 23:25:35 10° W 23:28:29 36° SSW 23:29:00 34° S
NOSS 3-4 (A) 3.5 23:23:52 14° SSW 23:29:00 56° SE 23:35:15 10° NE
NOSS 3-4 (C) 3.5 23:24:01 14° SSW 23:29:06 56° SE 23:35:21 10° NE
STARLINK-1270 3.5 23:26:29 10° W 23:29:23 36° SSW 23:29:53 33° S
STARLINK-1230 3.7 23:25:53 10° W 23:30:02 78° N 23:34:12 10° E
RESURS DK-1 3.9 23:29:48 18° SE 23:30:49 20° ESE 23:33:51 10° ENE
STARLINK-1189 3.5 23:28:16 10° W 23:31:10 35° SSW 23:31:36 33° S
Cosmos 292 Rocket 4.0 23:26:46 11° SSW 23:31:25 70° WNW 23:36:19 10° NNE
Meteor 2-10 4.0 23:26:29 10° NNW 23:31:32 75° W 23:34:44 23° S
STARLINK-1188 3.5 23:29:11 10° W 23:32:05 35° SSW 23:32:29 33° S
Cosmos 2315 Rocket 4.2 23:26:27 10° N 23:32:37 62° ENE 23:36:58 20° SSE
STARLINK-1154 3.5 23:28:39 10° WNW 23:32:47 75° SSW 23:36:35 12° ESE
STARLINK-1187 3.7 23:30:21 10° W 23:33:09 31° SSW 23:33:23 31° SSW
STARLINK-1191 3.6 23:31:38 10° W 23:34:29 33° SSW 23:34:47 32° SSW
STARLINK-1243 3.7 23:30:53 10° W 23:35:02 79° N 23:39:12 10° E
STARLINK-1221 3.6 23:32:35 10° W 23:35:27 33° SSW 23:35:42 32° SSW
Cosmos 1340 Rocket 2.8 23:31:53 10° NNW 23:35:57 83° W 23:38:06 27° S
STARLINK-1222 3.6 23:33:27 10° W 23:36:17 32° SSW 23:36:30 32° SSW
Cosmos 2227 Rocket 3.8 23:31:22 10° NNW 23:36:25 31° NE 23:41:26 10° ESE
STARLINK-1214 3.6 23:34:21 10° W 23:37:10 32° SSW 23:37:23 32° SSW
Cosmos 1626 4.3 23:36:00 13° ESE 23:37:31 15° E 23:39:44 10° NE
STARLINK-1197 3.5 23:33:36 10° WNW 23:37:45 72° SSW 23:41:21 13° ESE
Cosmos 2369 Rocket 2.6 23:32:13 10° SW 23:37:51 65° NW 23:43:29 10° NNE
ATLAS CENTAUR R/B 1.7 23:35:43 25° S 23:37:53 46° SE 23:41:50 10° NE
S3M 4.1 23:32:22 10° NNW 23:38:29 69° W 23:42:52 20° S
STARLINK-1236 3.7 23:35:51 10° W 23:40:01 79° N 23:44:10 10° E
Cosmos 1908 3.5 23:36:48 10° N 23:40:34 56° ENE 23:42:29 26° SE
STARLINK-1198 3.5 23:38:35 10° WNW 23:42:43 69° SSW 23:46:07 15° ESE
Cosmos 1025 Rocket 3.3 23:39:50 19° SSW 23:42:45 63° WNW 23:47:03 10° N
Aureole 3 2.6 23:40:06 10° N 23:43:25 83° ENE 23:44:31 37° SSE
Thor Agena Rocket 3.7 23:38:19 10° NNE 23:43:37 75° WNW 23:47:47 17° SSW
STARLINK-1228 4.2 23:41:17 10° W 23:44:18 27° SW 23:44:34 27° SSW
Cosmos 1953 2.6 23:40:22 10° NNW 23:44:19 58° W 23:46:22 26° SSW
Cosmos 1470 4.3 23:41:36 10° NNW 23:44:54 27° W 23:47:12 16° SW
STARLINK-1235 4.2 23:43:08 10° W 23:45:48 25° SW 23:45:48 25° SW
STARLINK-1199 3.5 23:43:35 10° WNW 23:47:43 66° SSW 23:50:56 16° ESE
STARLINK-1269 3.7 23:45:50 10° W 23:49:59 81° N 23:54:09 10° E
SL-4 R/B 0.6 23:50:08 58° WSW 23:50:11 58° WSW 23:52:21 10° NNW
Cosmos 1656 Rocket 3.7 23:46:09 15° SSW 23:50:58 89° NW 23:56:34 10° NNE
Meteor 2-19 Rocket 4.4 23:47:40 21° S 23:51:58 86° E 23:58:08 10° NNE
STARLINK-1210 3.6 23:48:33 10° WNW 23:52:40 63° SSW 23:55:41 17° SE
APEX 4.5 23:47:16 10° SW 23:53:32 67° NW 23:58:35 10° NNE
KORONAS-FOTON 4.2 23:52:25 29° SSE 23:54:03 50° E 23:57:49 10° NNE
STARLINK-1200 3.7 23:50:48 10° W 23:54:57 82° N 23:59:07 10° E
